This demonstration page uses our WeatherBlox Daily Observations layout. Learn more.

Left ArrowRight Arrow

39.92423, -83.80882

Hourly Observations for March 28, 2019

Temp ( °F °C ) Dew Point ( °F °C ) Humidity (%) Winds ( mph kmh ) Pressure ( in mb ) Visibility ( mi km ) Precip ( " mm )
12:56 am 00:56 Clear 46 7.8 26 -3.3 46 46 S 7 11 30.21 1023 10 16.0934 0 0
1:56 am 01:56 Clear 43 6.1 26 -3.3 51 51 SSW 6 9 30.21 1023 10 16.0934 0 0
2:56 am 02:56 Clear 44 6.7 26 -3.3 49 49 SSW 8 13 30.21 1023 10 16.0934 0 0
3:56 am 03:56 Clear 43 6.1 27 -2.8 53 53 SW 7 11 30.22 1023 10 16.0934 0 0
4:56 am 04:56 Clear 41 5 27 -2.8 57 57 SSW 8 13 30.22 1023 10 16.0934 0 0
6:56 am 06:56 Clear 43 6.1 27 -2.8 53 53 SSW 7 11 30.21 1023 10 16.0934 0 0
8:56 am 08:56 Cloudy 46 7.8 30 -1.1 54 54 SSW 6 9 30.23 1024 10 16.0934 0 0
9:56 am 09:56 Cloudy with Light Rain 46 7.8 32 0 58 58 SSW 9 15 30.21 1023 10 16.0934 0 0.0254
10:56 am 10:56 Cloudy 50 10 34 1.1 54 54 SSW 14 22 30.19 1022 10 16.0934 0 0.0254
11:56 am 11:56 Cloudy 54 12.2 34 1.1 47 47 SW 17 28 30.19 1022 10 16.0934 0 0
12:56 pm 12:56 Cloudy 57 13.9 33 0.6 41 41 SW 20 31 30.15 1021 10 16.0934 0 0
1:56 pm 13:56 Mostly Cloudy 60 15.6 35 1.7 39 39 SW 20 31 30.12 1020 10 16.0934 0 0
2:56 pm 14:56 Cloudy 62 16.7 38 3.3 41 41 SW 16 26 30.11 1020 10 16.0934 0 0
3:56 pm 15:56 Sunny 66 18.9 41 5 40 40 SSW 15 24 30.07 1018 10 16.0934 0 0
4:56 pm 16:56 Mostly Cloudy 65 18.3 40 4.4 40 40 SW 18 30 30.07 1018 10 16.0934 0 0
5:56 pm 17:56 Sunny 67 19.4 41 5 39 39 SW 16 26 30.06 1018 10 16.0934 0 0
6:56 pm 18:56 Mostly Cloudy 64 17.8 42 5.6 45 45 SW 12 19 30.07 1018 10 16.0934 0 0
7:56 pm 19:56 Cloudy 63 17.2 42 5.6 47 47 SW 10 17 30.08 1019 10 16.0934 0 0
8:56 pm 20:56 Mostly Cloudy 62 16.7 41 5 46 46 SSW 9 15 30.07 1018 10 16.0934 0 0
9:56 pm 21:56 Mostly Cloudy 60 15.6 42 5.6 52 52 SSW 8 13 30.08 1019 10 16.0934 0 0
10:56 pm 22:56 Cloudy 60 15.6 42 5.6 52 52 SSW 9 15 30.08 1019 10 16.0934 0 0
11:56 pm 23:56 Cloudy 59 15 43 6.1 56 56 SW 9 15 30.08 1019 10 16.0934 0 0

Powered by AerisWeather